• In Hungary
  • List of Countries
  • For 7 days
  • Water Temperature
  • Satellite Maps
  • Weather Map
  • News
  • Weather Widgets
  • user-avatar
    Login

    Hourly Weather Bokson

    Today, 22 September, Saturday

    Time Temperature Precipitation Wind Pressure Humidity
    00:00 -3°C° 0 mm 1 mps 595 mmHg 56%
    01:00 -3°C° 0 mm 1 mps 595 mmHg 56%
    02:00 -3°C° 0 mm 1 mps 595 mmHg 54%
    03:00 -3°C° 0 mm 1 mps 595 mmHg 53%
    04:00 -3°C° 0 mm 1 mps 595 mmHg 52%
    05:00 -3°C° 0 mm 1 mps 595 mmHg 50%
    06:00 -2°C° 0 mm 1 mps 596 mmHg 48%
    07:00 -3°C° 0 mm 1 mps 596 mmHg 52%
    08:00 -1°C° 0 mm 1 mps 596 mmHg 60%
    09:00 +1°C° 0 mm 1 mps 596 mmHg 67%
    10:00 +3°C° 0 mm 1 mps 597 mmHg 74%
    11:00 +4°C° 0 mm 1 mps 597 mmHg 77%
    12:00 +4°C° 0 mm 1 mps 597 mmHg 79%
    13:00 +5°C° 0 mm 1 mps 597 mmHg 81%
    14:00 +5°C° 0 mm 1 mps 597 mmHg 78%
    15:00 +5°C° 0 mm 1 mps 597 mmHg 74%
    16:00 +5°C° 0 mm 1 mps 596 mmHg 70%
    17:00 +3°C° 0 mm 1 mps 596 mmHg 66%
    18:00 +1°C° 0 mm 1 mps 595 mmHg 62%
    19:00 -1°C° 0 mm 1 mps 594 mmHg 58%
    20:00 -1°C° 0 mm 1 mps 594 mmHg 57%
    21:00 -1°C° 0 mm 1 mps 594 mmHg 55%
    22:00 -4°C° 0 mm 2 mps 594 mmHg 54%
    23:00 -4°C° 0 mm 2 mps 594 mmHg 53%

    Tomorrow, 23 September, Sunday

    Time Temperature Precipitation Wind Pressure Humidity
    00:00 -4°C° 0 mm 2 mps 594 mmHg 53%
    01:00 -4°C° 0 mm 2 mps 594 mmHg 52%
    02:00 -4°C° 0 mm 2 mps 594 mmHg 52%
    03:00 -4°C° 0 mm 2 mps 593 mmHg 51%
    04:00 -4°C° 0 mm 2 mps 593 mmHg 51%
    05:00 -2°C° 0 mm 1 mps 593 mmHg 51%
    06:00 -1°C° 0 mm 1 mps 594 mmHg 50%
    07:00 -1°C° 0 mm 1 mps 594 mmHg 50%
    08:00 +1°C° 0 mm 1 mps 594 mmHg 59%
    09:00 +3°C° 0 mm 1 mps 594 mmHg 69%
    10:00 +4°C° 0 mm 1 mps 594 mmHg 78%
    11:00 +5°C° 0 mm 1 mps 594 mmHg 79%
    12:00 +5°C° 0 mm 1 mps 594 mmHg 80%
    13:00 +6°C° 0 mm 1 mps 594 mmHg 81%
    14:00 +6°C° 0 mm 1 mps 594 mmHg 78%
    15:00 +6°C° 0 mm 1 mps 594 mmHg 75%
    16:00 +6°C° 0 mm 1 mps 593 mmHg 71%
    17:00 +5°C° 0 mm 1 mps 593 mmHg 68%
    18:00 +3°C° 0 mm 1 mps 593 mmHg 64%
    19:00 +2°C° 0 mm 1 mps 592 mmHg 60%
    20:00 +2°C° 0.1 mm 1 mps 592 mmHg 61%
    21:00 +2°C° 0.1 mm 1 mps 593 mmHg 62%
    22:00 +2°C° 0.1 mm 1 mps 593 mmHg 62%
    23:00 +2°C° 0 mm 1 mps 593 mmHg 63%

    Day after tomorrow, 24 September, Monday

    Time Temperature Precipitation Wind Pressure Humidity
    00:00 +2°C° 0 mm 1 mps 592 mmHg 63%
    01:00 +1°C° 0 mm 1 mps 592 mmHg 64%
    02:00 +1°C° 0 mm 1 mps 592 mmHg 64%
    03:00 0°C° 0 mm 1 mps 591 mmHg 65%
    04:00 0°C° 0 mm 1 mps 591 mmHg 65%
    05:00 0°C° 0 mm 1 mps 591 mmHg 65%
    06:00 0°C° 0 mm 1 mps 591 mmHg 64%
    07:00 0°C° 0 mm 1 mps 591 mmHg 64%
    08:00 +1°C° 0 mm 1 mps 592 mmHg 71%
    09:00 +3°C° 0 mm 1 mps 592 mmHg 77%
    10:00 +5°C° 0 mm 1 mps 593 mmHg 84%
    11:00 +5°C° 0 mm 1 mps 593 mmHg 84%
    12:00 +6°C° 0 mm 1 mps 592 mmHg 83%
    13:00 +6°C° 0 mm 1 mps 592 mmHg 83%
    14:00 +6°C° 0 mm 1 mps 592 mmHg 82%
    15:00 +6°C° 0 mm 1 mps 592 mmHg 81%
    16:00 +6°C° 0 mm 1 mps 592 mmHg 79%
    17:00 +5°C° 0 mm 1 mps 591 mmHg 77%
    18:00 +3°C° 0 mm 1 mps 591 mmHg 75%
    19:00 +1°C° 0 mm 1 mps 590 mmHg 72%
    20:00 +1°C° 0 mm 1 mps 591 mmHg 72%
    21:00 +1°C° 0 mm 1 mps 591 mmHg 72%
    22:00 +1°C° 0 mm 1 mps 591 mmHg 72%
    23:00 0°C° 0 mm 1 mps 591 mmHg 72%

    25 September, Tuesday

    Time Temperature Precipitation Wind Pressure Humidity
    00:00 0°C° 0 mm 1 mps 591 mmHg 72%
    01:00 0°C° 0 mm 1 mps 591 mmHg 72%
    02:00 0°C° 0 mm 1 mps 590 mmHg 72%
    03:00 0°C° 0 mm 1 mps 590 mmHg 72%
    04:00 0°C° 0 mm 1 mps 590 mmHg 72%
    05:00 0°C° 0 mm 1 mps 590 mmHg 71%
    06:00 0°C° 0 mm 1 mps 590 mmHg 71%
    07:00 +1°C° 0 mm 1 mps 591 mmHg 70%
    08:00 +2°C° 0 mm 1 mps 591 mmHg 74%
    09:00 +3°C° 0 mm 1 mps 591 mmHg 79%
    10:00 +4°C° 0 mm 2 mps 591 mmHg 83%
    11:00 +4°C° 0 mm 2 mps 591 mmHg 83%
    12:00 +5°C° 0 mm 2 mps 591 mmHg 82%
    13:00 +5°C° 0 mm 2 mps 591 mmHg 82%
    14:00 +6°C° 0 mm 1 mps 591 mmHg 81%
    15:00 +6°C° 0 mm 1 mps 591 mmHg 81%
    16:00 +6°C° 0 mm 1 mps 591 mmHg 80%
    17:00 +5°C° 0 mm 1 mps 590 mmHg 80%
    18:00 +4°C° 0 mm 1 mps 590 mmHg 80%
    19:00 +4°C° 0 mm 1 mps 590 mmHg 79%
    20:00 +3°C° 0.1 mm 1 mps 590 mmHg 81%
    21:00 +3°C° 0.1 mm 1 mps 590 mmHg 82%
    22:00 +3°C° 0.1 mm 1 mps 591 mmHg 83%
    23:00 +2°C° 0.1 mm 1 mps 590 mmHg 84%

    26 September, Wednesday

    Time Temperature Precipitation Wind Pressure Humidity
    00:00 +2°C° 0.1 mm 1 mps 590 mmHg 86%
    01:00 +2°C° 0.1 mm 1 mps 590 mmHg 87%
    02:00 +2°C° 0.2 mm 1 mps 590 mmHg 89%
    03:00 +1°C° 0.2 mm 2 mps 591 mmHg 91%
    04:00 -1°C° 0.2 mm 2 mps 591 mmHg 93%
    05:00 +1°C° 0.4 mm 2 mps 591 mmHg 93%
    06:00 +1°C° 0.4 mm 2 mps 591 mmHg 94%
    07:00 +1°C° 0.4 mm 2 mps 592 mmHg 95%
    08:00 +1°C° 0.3 mm 3 mps 592 mmHg 94%
    09:00 +1°C° 0.3 mm 3 mps 593 mmHg 93%
    10:00 +2°C° 0.3 mm 3 mps 593 mmHg 92%
    11:00 +2°C° 0.1 mm 3 mps 593 mmHg 91%
    12:00 +2°C° 0.1 mm 3 mps 593 mmHg 90%
    13:00 +2°C° 0.1 mm 3 mps 593 mmHg 89%
    14:00 +2°C° 0.1 mm 3 mps 593 mmHg 88%
    15:00 +3°C° 0.1 mm 2 mps 593 mmHg 87%
    16:00 +3°C° 0.1 mm 2 mps 593 mmHg 87%
    17:00 +2°C° 0.1 mm 2 mps 594 mmHg 88%
    18:00 +1°C° 0.1 mm 2 mps 594 mmHg 88%
    19:00 -1°C° 0.1 mm 2 mps 594 mmHg 89%
    20:00 -1°C° 0 mm 2 mps 594 mmHg 89%
    21:00 0°C° 0 mm 1 mps 594 mmHg 90%
    22:00 0°C° 0 mm 1 mps 595 mmHg 90%
    23:00 0°C° 0 mm 1 mps 595 mmHg 90%

    27 September, Thursday

    Time Temperature Precipitation Wind Pressure Humidity
    00:00 -3°C° 0 mm 2 mps 595 mmHg 90%
    01:00 -3°C° 0 mm 2 mps 595 mmHg 91%
    02:00 -3°C° 0.1 mm 2 mps 595 mmHg 91%
    03:00 -3°C° 0.1 mm 2 mps 596 mmHg 91%
    04:00 -3°C° 0.1 mm 2 mps 596 mmHg 91%
    05:00 -3°C° 0 mm 2 mps 596 mmHg 91%
    06:00 -3°C° 0 mm 2 mps 596 mmHg 91%
    07:00 -3°C° 0 mm 2 mps 597 mmHg 91%
    08:00 -2°C° 0 mm 2 mps 597 mmHg 87%
    09:00 -1°C° 0 mm 3 mps 598 mmHg 83%
    10:00 +1°C° 0 mm 3 mps 598 mmHg 80%
    11:00 0°C° 0 mm 4 mps 598 mmHg 78%
    12:00 +1°C° 0 mm 4 mps 598 mmHg 77%
    13:00 +1°C° 0 mm 5 mps 598 mmHg 76%
    14:00 +1°C° 0 mm 5 mps 598 mmHg 75%
    15:00 +1°C° 0 mm 5 mps 598 mmHg 75%
    16:00 +1°C° 0 mm 5 mps 598 mmHg 74%
    17:00 0°C° 0 mm 4 mps 598 mmHg 78%
    18:00 0°C° 0 mm 3 mps 598 mmHg 81%
    19:00 -1°C° 0 mm 2 mps 598 mmHg 85%
    20:00 -2°C° 0 mm 2 mps 598 mmHg 86%
    21:00 -2°C° 0 mm 2 mps 598 mmHg 88%
    22:00 -2°C° 0 mm 2 mps 598 mmHg 90%
    23:00 -2°C° 0 mm 2 mps 598 mmHg 90%
    Show more